Tracking 29495 objects as of 7-Sep-2024
HD Live streaming from Space Station
objects crossing your sky now

STARLINK-3296

Track STARLINK-3296 now!
10-day predictions
STARLINK-3296 is classified as:


NORAD ID: 50168
Int'l Code: 2021-125N
Perigee: 546.0 km
Apogee: 547.7 km
Inclination: 53.2 °
Period: 95.4 minutes
Semi major axis: 6917 km
RCS: Unknown
Launch date: December 18, 2021
Source: United States (US)
Launch site: AIR FORCE WESTERN TEST RANGE (AFWTR)
Your satellite tracking list
Your tracking list is empty




NASA's NSSDC Master Catalog

Two Line Element Set (TLE):
1 50168U 21125N   24251.25061965 -.00000234  00000-0  33817-5 0  9996
2 50168  53.2154 191.2437 0001231  93.4893 266.6240 15.08839980150713
Source of the keplerian elements: AFSPC